Regional Weather Roundup
Issued by NWS

Home | Current Version | Previous Version | Graphics & Text | Print | Product List | Glossary On
Versions: 1 2 3 4 5 6 7 8 9 10 11 12 13 14 15 16 17 18 19 20 21 22 23 24 25 26 27 28 29 30 31 32 33 34 35 36 37 38 39 40 41 42 43 44 45 46 47 48 49 50
000
ASUS43 KIND 210600
RWRIN

WEATHER ROUNDUP FOR INDIANA
NATIONAL WEATHER SERVICE INDIANAPOLIS IN
200 AM EDT FRI JUL 21 2017

NOTE: "FAIR" INDICATES FEW OR NO CLOUDS BELOW 12,000 FEET WITH NO
SIGNIFICANT WEATHER AND/OR OBSTRUCTIONS TO VISIBILITY.

* - STATION DOES NOT REPORT WEATHER SUCH AS PRECIPITATION OR FOG.

+ - STATION NOT QUALITY CONTROLLED BY THE NATIONAL WEATHER SERVICE.
    USE DATA WITH CAUTION...ESPECIALLY DEWPOINT AND RELATIVE
    HUMIDITY OBSERVATIONS.

INZ001>003-010>013-019-020-210700-
NORTHWEST INDIANA

CITY           SKY/WX    TMP DP  RH WIND       PRES   REMARKS
MICHIGAN CITY+ FOG       68  68 100 CALM      29.98S VSB 1/4
MONTICELLO +   MOCLDY    77  76  95 CALM      29.96S FOG
6HR MIN TEMP:  77; 6HR MAX TEMP:  83;

RENSSELAER +   CLEAR     73  72  94 E3        29.96F FOG

$$

LMZ046-743>745-210700-
SOUTHERN LAKE MICHIGAN

STATION/POSITION TIME  TEMP    WIND        PRES    WAVE
                       AIR SEA DIR/SP/G            HT
                 (UTC) (F)     (DEG/KT/KT) (MB)    (FT)
BURNS HARBOR     0540   76      80/  5/  6 1015.2S
MICHIGAN CITY    0530   74      90/  2/  2   N/A
5NW MICH CITY    0550   74 74   CALM  /  2   N/A     0

$$

INZ004-005-014>016-021>024-210700-
NORTH CENTRAL INDIANA

CITY           SKY/WX    TMP DP  RH WIND       PRES   REMARKS
GOSHEN         CLEAR     73  68  84 N5        29.97F
6HR MIN TEMP:  72; 6HR MAX TEMP:  84;

PERU/GRISSOM   PTCLDY    79  79 100 N3        29.96S
SOUTH BEND     CLEAR     68  68 100 NE3       29.97F
6HR MIN TEMP:  68; 6HR MAX TEMP:  81;


$$

INZ006>009-017-018-025>027-210700-
NORTHEAST INDIANA

CITY           SKY/WX    TMP DP  RH WIND       PRES   REMARKS
ANGOLA *+      CLEAR     72  64  78 N3        29.98S
FORT WAYNE     PTCLDY    76  73  91 CALM      29.97S
6HR MIN TEMP:  76; 6HR MAX TEMP:  85; 6HR PCP: TRACE;

KENDALLVILLE + CLEAR    N/A N/A N/A N5        29.98F

$$

INZ028-029-035-036-043>045-051>053-210700-
WEST CENTRAL INDIANA

CITY           SKY/WX    TMP DP  RH WIND       PRES   REMARKS
LAFAYETTE      PTCLDY    78  78 100 CALM      29.95S FOG
6HR MIN TEMP:  77; 6HR MAX TEMP:  85; 6HR PCP: TRACE;

TERRE HAUTE    CLOUDY    80  73  79 SW6       29.97F
6HR MIN TEMP:  80; 6HR MAX TEMP:  89;


$$

INZ030>032-037>040-046>048-054>057-064-065-210700-
CENTRAL INDIANA

CITY           SKY/WX    TMP DP  RH WIND       PRES   REMARKS
INDIANAPOLIS   CLOUDY    80  73  79 SW9       29.97S
6HR MIN TEMP:  80; 6HR MAX TEMP:  86;

-EAGLE CREEK   CLOUDY    82  73  74 SW7       29.97F
6HR MIN TEMP:  82; 6HR MAX TEMP:  86;

KOKOMO +       CLOUDY    79  77  94 CALM      29.97F
6HR MIN TEMP:  78; 6HR MAX TEMP:  85; 6HR PCP: TRACE;

MT COMFORT *+  CLOUDY    79  75  89 SW6       29.99S
SHELBYVILLE    CLOUDY    78  73  84 S6        29.98F
6HR MIN TEMP:  78; 6HR MAX TEMP:  86;


$$

INZ033-034-041-042-049-050-058-059-210700-
EAST CENTRAL INDIANA

CITY           SKY/WX    TMP DP  RH WIND       PRES   REMARKS
MUNCIE         CLOUDY    82  76  81 SW5       29.98S
6HR MIN TEMP:  81; 6HR MAX TEMP:  87;

RICHMOND +     PTCLDY    75  73  94 SW8       30.02S

$$

INZ060-061-067>069-081>083-085>088-210700-
SOUTHWEST INDIANA

CITY           SKY/WX    TMP DP  RH WIND       PRES   REMARKS
EVANSVILLE     PTCLDY    80  74  81 SW5       30.01S
6HR MIN TEMP:  78; 6HR MAX TEMP:  92;

HUNTINGBURG *+ CLOUDY    79  73  82 S3        30.01F
6HR MIN TEMP:  78; 6HR MAX TEMP:  86;


$$

INZ062-063-066-070>080-084-089>092-210700-
SOUTH CENTRAL AND SOUTHEAST INDIANA

CITY           SKY/WX    TMP DP  RH WIND       PRES   REMARKS
BLOOMINGTON    CLOUDY    78  72  81 SW7       30.00F
6HR MIN TEMP:  78; 6HR MAX TEMP:  88;

MADISON *+     CLEAR     77  72  83 SW3       30.04S
SEYMOUR +      CLEAR     77  73  88 S5        30.00F

$$





USA.gov is the U.S. government's official web portal to all federal, state and local government web resources and services.